Overview Statistics Trail Chart Weather Telemetry Raw packets
 

This is the latest recevied weather packets stored in our database for station/object K5OLV. If no packets are shown the sender has not sent any weather packets the latest 10 day(s).

<< 37 38 39 40 41 42 43 >>
Time Temp. Humidity Pressure Rain* Wind** Luminosity Snow
1788360361 27.78° C 80% 1019.6 hPa 0 mm - 557 W/m² -
1788360060 28.33° C 82% 1019.6 hPa 0 mm - 527 W/m² -
1788359750 28.89° C 75% 1019.7 hPa 0 mm - 533 W/m² -
1788359446 28.89° C 75% 1019.8 hPa 0 mm - 522 W/m² -
1788359141 28.33° C 77% 1019.4 hPa 0 mm - 496 W/m² -
1788358836 27.78° C 78% 1019.4 hPa 0 mm - 490 W/m² -
1788358536 27.78° C 79% 1019.6 hPa 0 mm - 473 W/m² -
1788358231 27.78° C 80% 1019.4 hPa 0 mm - 428 W/m² -
1788357926 27.22° C 79% 1019.2 hPa 0 mm - 406 W/m² -
1788357621 27.22° C 78% 1019.4 hPa 0 mm - 390 W/m² -
1788357315 27.78° C 74% 1019.2 hPa 0 mm - 354 W/m² -
1788357010 28.33° C 74% 1019.4 hPa 0 mm - 330 W/m² -
1788356706 27.78° C 76% 1019.4 hPa 0 mm - 318 W/m² -
1788356405 28.89° C 74% 1019.3 hPa 0 mm - 300 W/m² -
1788356100 27.78° C 75% 1019.4 hPa 0 mm - 287 W/m² -
1788355795 26.67° C 78% 1019.4 hPa 0 mm - 258 W/m² -
1788355491 26.11° C 80% 1019.2 hPa 0 mm - 250 W/m² -
1788355190 26.11° C 79% 1019.2 hPa 0 mm - 239 W/m² -
1788354887 25° C 84% 1019.2 hPa 0 mm - 212 W/m² -
1788354581 24.44° C 94% 1019 hPa 0 mm - 201 W/m² -
1788354277 23.89° C 95% 1018.9 hPa 0 mm - 91 W/m² -
1788353972 23.89° C 94% 1019 hPa 0 mm - 58 W/m² -
1788353668 23.89° C 95% 1018.9 hPa 0 mm - 66 W/m² -
1788353364 23.33° C 95% 1019 hPa 0 mm - 69 W/m² -
1788353059 22.78° C 95% 1019 hPa 0 mm - 53 W/m² -

* Rain latest hour (hover to see other rain measurements)
** Current wind speed in m/s (hover to see current wind gust speed)